This demonstration page uses our WeatherBlox Daily Observations layout. Learn more.

Left ArrowRight Arrow

Hourly Observations for October 12, 2021

Temp ( °F °C ) Dew Point ( °F °C ) Humidity (%) Winds ( mph kmh ) Pressure ( in mb ) Visibility ( mi km ) Precip ( " mm )
12:53 am 00:53 Clear 55 12.8 24 -4.4 30 30 N 12 19 30.08 1019 10 16 N/A
1:53 am 01:53 Clear 54 12.2 25 -3.9 33 33 N 8 13 30.10 1019 10 16 N/A
2:53 am 02:53 Clear 52 11.1 26 -3.3 37 37 NNW 6 9 30.11 1020 10 16 N/A
3:53 am 03:53 Clear 52 11.1 27 -2.8 38 38 NNW 8 13 30.11 1020 10 16 N/A
4:53 am 04:53 Clear 50 10 27 -2.8 41 41 N 7 11 30.11 1020 10 16 N/A
5:53 am 05:53 Clear 49 9.4 27 -2.8 43 43 NNW 7 11 30.12 1020 10 16 N/A
6:53 am 06:53 Clear 49 9.4 27 -2.8 43 43 NNW 8 13 30.13 1020 10 16 N/A
7:53 am 07:53 Sunny 49 9.4 26 -3.3 41 41 NW 5 7 30.15 1021 10 16 N/A
8:53 am 08:53 Sunny 54 12.2 25 -3.9 33 33 N 7 11 30.16 1021 10 16 N/A
9:53 am 09:53 Sunny 57 13.9 22 -5.6 26 26 N 15 24 30.13 1020 10 16 N/A
10:53 am 10:53 Sunny 61 16.1 20 -6.7 20 20 NNE 16 26 30.11 1020 10 16 N/A
11:53 am 11:53 Sunny 62 16.7 19 -7.2 19 19 N 13 20 30.09 1019 10 16 N/A
12:53 pm 12:53 Sunny 65 18.3 18 -7.8 16 16 NNW 9 15 30.07 1018 10 16 N/A
1:53 pm 13:53 Sunny 69 20.6 14 -10 12 12 N 17 28 30.02 1017 10 16 N/A
2:53 pm 14:53 Sunny 70 21.1 12 -11.1 10 10 NNE 15 24 30.00 1016 10 16 N/A
3:53 pm 15:53 Sunny 70 21.1 12 -11.1 10 10 N 7 11 29.98 1015 10 16 N/A
4:53 pm 16:53 Sunny 71 21.7 12 -11.1 10 10 N 8 13 29.97 1015 10 16 N/A
5:53 pm 17:53 Sunny 70 21.1 13 -10.6 11 11 NE 6 9 29.95 1014 10 16 N/A
6:53 pm 18:53 Clear 63 17.2 15 -9.4 15 15 N N/A 29.95 1014 10 16 N/A
7:53 pm 19:53 Clear 60 15.6 16 -8.9 18 18 WNW 3 6 29.95 1014 10 16 N/A
8:53 pm 20:53 Clear 59 15 22 -5.6 24 24 WNW 5 7 29.95 1014 10 16 N/A
9:53 pm 21:53 Clear 59 15 20 -6.7 22 22 N 3 6 29.95 1014 10 16 N/A
10:53 pm 22:53 Mostly Clear 58 14.4 22 -5.6 25 25 N N/A 29.95 1014 10 16 N/A
11:53 pm 23:53 Clear 55 12.8 23 -5 29 29 N N/A 29.95 1014 10 16 N/A

Powered by AerisWeather